Location: Newark
(51.2625°N, 13.3939°E)
Time: 02:26:22
(UTC+00:00)

deb Explorer IX - Pass Details

Date: 18 November 2019
Orbit: 546 x 1104 km, 38.8° (Epoch: 12 December)

Event Time Altitude Azimuth Distance (km) Brightness Sun altitude
Rises 02:35:36 0° 243° (WSW) 3,466 - -35.9°
Reaches altitude 10° 02:38:52 10° 229° (SW) 2,414 - -35.4°
Maximum altitude 02:43:00 21° 182° (S) 1,637 - -34.7°
Exits shadow 02:46:08 12° 139° (SE) 1,992 ? -34.3°
Drops below altitude 10° 02:46:43 10° 133° (SE) 2,137 ? -34.2°
Sets 02:49:25 0° 117° (ESE) 2,961 ? -33.8°
